BEIJING 1 1 28890U 05043A 26247.73037568 .00000039 00000+0 17097-4 0 9998 2 28890 98.3025 21.4351 0015427 36.9431 323.2830 14.63572093112282 HUANJING 1A (HJ-1A) 1 33320U 08041A 26247.72616829 .00001061 00000+0 13288-3 0 9998 2 33320 97.6772 230.5296 0017411 235.2488 124.7088 14.84147207970200 HUANJING 1B (HJ-1B) 1 33321U 08041B 26247.73202337 .00000897 00000+0 11446-3 0 9995 2 33321 97.6605 233.4624 0034678 283.3994 76.3356 14.83449672970203 YAOGAN-4 1 33446U 08061A 26247.56731406 .00000463 00000+0 63061-4 0 9990 2 33446 97.9317 180.5010 0014422 166.3279 193.8328 14.83327551957431 DEIMOS-1 1 35681U 09041A 26247.74547981 .00000690 00000+0 10888-3 0 9995 2 35681 97.7513 41.5767 0000795 24.4829 335.6418 14.75308322918617 UK-DMC 2 1 35683U 09041C 26247.67274505 .00000632 00000+0 98663-4 0 9992 2 35683 97.8945 20.7486 0001452 67.2515 292.8848 14.76130711918295 DMC3-FM1 1 40715U 15032A 26247.74139938 -.00000061 00000+0 -11028-5 0 9998 2 40715 97.6342 109.7549 0006238 137.7112 222.4586 14.85809828601724 DMC3-FM2 1 40716U 15032B 26247.76308132 -.00000134 00000+0 -95121-5 0 9992 2 40716 97.6390 111.4026 0006541 143.9676 216.1981 14.85816227601729 DMC3-FM3 1 40717U 15032C 26247.71965931 .00000471 00000+0 60028-4 0 9993 2 40717 97.6438 113.1628 0005864 142.3352 217.8275 14.85806320601728